243  
SXUS52 KTAE 291018  
OSOTAE  
OSOTAE  
NORTH FLORIDA/SOUTH ALABAMA/SOUTHWEST GEORGIA WEATHER ROUNDUP  
NATIONAL WEATHER SERVICE TALLAHASSEE FLORIDA  
600 AM EDT WED MAR 29 2017  
 
NOTE: "FAIR" INDICATES FEW OR NO CLOUDS BELOW 12,000 FEET WITH NO  
SIGNIFICANT WEATHER AND/OR OBSTRUCTIONS TO VISIBILITY.  
 
!FLZ017-115-028-034-025-291100   
..NORTH FLORIDA
 
 
 
CITY SKY/WX TMP DP RH WIND PRES REMARKS  
TALLAHASSEE FOG 62 62 100 CALM 29.98S VSB 1/8  
APALACHICOLA FOG 58 58 100 CALM 29.97S VSB 3/4  
PERRY FOG 60 59 97 CALM 30.00S VSB 1/4  
CROSS CITY CLEAR 54 52 94 CALM 30.00R  
JACKSONVILLE CLEAR 59 57 93 CALM 29.97S  

 
 
!FLZ112-006-005-002-011-291100   
..FLORIDA PANHANDLE
 
 
 
CITY SKY/WX TMP DP RH WIND PRES REMARKS  
MARIANNA CLOUDY 67 66 97 W3 29.97S  
BONIFAY NOT AVBL  
PANAMA CITY NW FOG 59 57 93 CALM 29.97R VSB 1/2  
TYNDALL AFB CLEAR 61 61 100 CALM 29.97S FOG  
TYND DRONE APT FOG 61 N/A N/A CALM 29.97S VSB 3/4  
DE FUNIAK SPR FOG 64 64 100 CALM 29.98S VSB 1/4  
EGLIN AFB PTCLDY 66 65 98 CALM 29.97R  
DESTIN PTCLDY 72 72 100 CALM 29.96S  
HURLBURT CLEAR 63 62 96 CALM 29.95S  
CRESTVIEW FOG 66 65 96 CALM 29.99R VSB 1/4  
PENSACOLA PTCLDY 69 66 90 SE3 29.95S  

 
 
!ALZ063-066-291100   
..SOUTH ALABAMA
 
 
 
CITY SKY/WX TMP DP RH WIND PRES REMARKS  
DOTHAN CLOUDY 67 65 93 W6 30.01S  
OZARK CAIRNS PTCLDY 67 64 91 W3 29.98S  
FT RUCKER HELI MOCLDY 68 64 87 W3 29.97S  
RUCKER HELI 3 CLOUDY 67 64 89 CALM 29.97S  
RUCKER HELI 2 CLOUDY 68 64 89 CALM 29.97S  
FLORALA APT CLOUDY 65 62 90 CALM 30.00R  
ANDALUSIA PTCLDY 68 64 87 CALM 29.97S  
TROY CLOUDY 66 64 93 SW5 29.99S  
EUFALA CLOUDY 64 61 90 CALM 29.98S  
MOBILE MOCLDY 66 64 93 SE6 29.94S  

 
 
!GAZ120>161-291100   
..SOUTHWEST AND SOUTH CENTRAL GEORGIA
 
 
 
CITY SKY/WX TMP DP RH WIND PRES REMARKS  
THOMASVILLE CLOUDY 66 66 100 CALM 29.99S  
BAINBRIDGE MOCLDY 66 63 88 CALM 29.99R  
MOODY AFB CLEAR 63 61 94 N3 29.97S  
VALDOSTA FOG 58 58 100 CALM 29.98S VSB 1  
MOULTRIE CLEAR 64 63 94 CALM 30.00S  
BLAKELY FOG 63 61 94 CALM 29.99R VSB 1  
ALBANY CLEAR 62 61 96 CALM 30.01R FOG  
TIFTON FAIR 64 64 100 W5 29.98S  
FITZGERALD FAIR 67 65 96 W5 30.01R  
CORDELE FAIR 66 64 93 CALM 30.00S  
AMERICUS PTSUNNY 63 63 100 CALM 30.01S  
HOMERVILLE FAIR 64 64 100 NW5 29.99R  

 
 
!GMZ750-755-770-775-291100   
..COASTAL AND BUOY OBS
 
 
 
STATION/POSITION TIME TEMP WIND PRES VSBY WAVE  
AIR SEA DIR/SP/G HT/PER  
(UTC) (F) (DEG/KT/KT) (MB) (MI) (FT/S)  
KEATON BEACH 1000 65 60/ 3/ 3 1015.2R  
CEDAR KEY 1000 69 80/ 2/ 3 1016.1R  
C TOWER 1000 68 180/ 3/ 3 1015.7S  
APALACHICOLA BUO 0950 70 72 70/ 2/ 2 1015.3R 1/ 7  
PANAMA CITY BUOY 0950 71 72 1014.9F 1/ 5  
MOBILE BUOY 1000 72 73 150/ 14/ 17 1013.4  
ORANGE BCH AL BU 0950 70 71 150/ 10/ 10 1013.6S 2/ 6  

 
 
 
CLICK HERE TO GO TO PREVIOUS BULLETINS.

The Nexlab FL Page
The Nexlab GA Page
The Nexlab AL Page Main Text Page